Location: Betz
(49.1556°N, 2.9558°E)
Time: 06:00:14
(UTC+00:00)

Terra - Pass Details

Date: 18 September 2019
Orbit: 701 x 703 km, 98.2° (Epoch: 21 October)

Event Time Altitude Azimuth Distance (km) Brightness Sun altitude
Exits shadow 21:45:50 33° 342° (NNW) 1,186 3.4 -33.3°
Drops below altitude 10° 21:48:26 10° 345° (NNW) 2,183 5.1 -33.5°
Sets 21:50:42 0° 346° (NNW) 3,105 6.1 -33.7°
